[[{"header":{"parameterUnit":"m.s-1","parameterCategory":1,"la1":30.2991,"la2":30.254,"lo1":-89.0895,"lo2":-89.0444,"dy":0.0017,"dx":0.0017,"nx":28,"ny":28,"refTime":"2025-05-28T09:00:00:Z","depth":0,"parameterNumber":2,"parameterNumberName":"U-component_of_WINDS"},"data":[0,0,0,0,0,0,0,0,0,0,0,0,0,0,0,0,0,0,0,0,0,0,0,0,0,0,0,0,0,0,0,0,0,0,0,0,0,0,0,0,0,0,0,0,0,0,0,0,0,0,0,0,0,0,0,0,0,0,3.596,3.596,0,3.5953,3.5953,3.5953,3.586,3.5857,3.5855,3.5853,3.5846,3.5848,3.585,0,0,0,0,0,0,0,0,0,0,0,0,0,3.5891,3.5893,3.596,3.596,3.596,3.5953,3.5953,3.5953,3.586,3.5857,3.5854,3.5852,3.5845,3.5847,3.585,0,0,0,0,0,0,0,0,0,0,0,0,0,3.5906,3.5893,3.596,3.5913,3.5908,3.5953,3.5953,3.5953,3.5861,3.5857,3.5854,3.585,3.5844,3.5847,3.585,3.594,0,0,3.5859,3.5861,0,0,0,0,0,0,0,0,3.5906,3.5909,3.592,3.5916,3.5911,3.5904,3.5926,3.5949,3.5862,3.5879,3.5853,3.5849,3.5868,3.5869,3.5875,3.5939,3.5939,3.586,3.5861,3.5863,3.5864,0,0,0,0,0,0,0,3.5905,3.5909,3.5957,3.592,3.5915,3.5891,3.5889,3.593,3.5893,3.5877,3.587,3.5871,3.5865,3.5872,3.5874,3.5939,3.586,3.5862,3.5864,3.5865,3.6072,3.6076,0,0,0,0,0,0,3.591,3.5908,3.5958,3.5957,3.59,3.5895,3.5893,3.591,3.5893,3.5887,3.5874,3.5866,3.5869,3.5871,3.5874,3.5974,3.5863,3.5866,3.5867,3.6069,3.6073,3.6077,0,0,0,0,0,0,3.5909,3.5916,3.5958,3.5931,3.5934,3.59,3.5919,3.5911,3.5919,3.589,3.5883,3.5888,3.5866,3.5869,3.5923,3.5973,3.5867,3.587,3.6064,3.607,3.6075,3.6178,0,0,0,0,0,0,3.5908,3.5916,3.595,3.5932,3.5936,3.6008,3.5923,3.5914,3.5924,3.5915,3.5902,3.5896,3.5864,3.5919,3.5926,3.5975,3.5872,3.606,3.6067,3.6073,3.617,3.6186,3.62,0,0,0,0,0,3.5905,3.598,3.5952,3.5959,3.5979,3.6011,3.6013,3.5974,3.5929,3.5962,3.5943,3.5897,3.5967,3.5925,3.5932,3.5983,3.6056,3.6065,3.6073,3.6163,3.6183,3.62,0,0,0,0,0,0,3.6005,3.5977,3.5946,3.6017,3.6017,3.5995,3.6036,3.5997,3.601,3.6001,3.5952,3.595,3.601,3.6002,3.5957,3.6067,3.6003,3.6013,3.6069,3.6088,3.6103,3.6102,3.5874,0,0,0,0,0,3.6035,3.6065,3.6039,3.6104,3.6105,3.6071,3.6084,3.6054,3.6052,3.6052,3.6037,3.6037,3.6058,3.6073,3.6092,3.6169,3.6163,3.6207,3.6223,3.6235,3.6244,3.628,3.6299,3.6104,3.6104,3.6104,0,0,3.6098,3.6086,3.6108,3.6124,3.612,3.615,3.6072,3.6108,3.6129,3.6057,3.6105,3.6095,3.6091,3.6156,3.6184,3.6152,3.6296,3.6246,3.6256,3.6257,3.6291,3.6309,3.6326,3.611,3.6109,3.6108,0,0,3.6227,3.6223,3.6274,3.6272,3.6267,3.6244,3.6257,3.624,3.623,3.6278,3.6223,3.6248,3.6288,3.6286,3.629,3.6417,3.6373,3.6425,3.6503,3.6539,3.6555,3.6568,3.661,3.6625,3.6434,3.6434,3.6434,0,3.6305,3.6348,3.6306,3.6345,3.6352,3.6288,3.6338,3.6339,3.6341,3.6347,3.631,3.6356,3.6349,3.6411,3.6442,3.6449,3.646,3.6424,3.6556,3.6569,3.6581,3.662,3.6636,3.644,3.6439,3.6439,3.6438,0,3.6443,3.6474,3.6517,3.6518,3.6531,3.6576,3.6539,3.6557,3.6525,3.6505,3.6554,3.6544,3.6557,3.657,3.6541,3.6628,3.6607,3.6565,3.6499,3.6606,3.6641,3.6656,3.6448,3.6446,3.6445,3.6443,0,0,3.6634,3.661,3.6626,3.6624,3.6614,3.6636,3.6678,3.6691,3.6705,3.6709,3.674,3.6774,3.6734,3.6739,3.6709,3.6742,3.6838,3.6694,3.6693,3.6718,3.6929,3.6958,3.6977,3.681,3.6813,3.6815,3.6928,0,3.6754,3.6822,3.6785,3.6858,3.6884,3.6823,3.6858,3.6855,3.6838,3.6857,3.6838,3.6861,3.6808,3.681,3.684,3.682,3.6879,3.6812,3.6837,3.6838,3.6836,3.6996,3.7027,3.7134,3.6942,3.6944,3.6946,0,3.6904,3.6912,3.6988,3.6969,3.6978,3.7011,3.7018,3.7038,3.7033,3.7017,3.7023,3.6984,3.7022,3.6959,3.7009,3.6964,3.6973,3.6965,3.6968,3.6966,3.6896,3.6995,3.7168,3.7182,3.6968,3.6967,3.6965,0,3.703,3.7061,3.7108,3.711,3.709,3.7114,3.7107,3.7098,3.7107,3.7114,3.7119,3.7131,3.7137,3.7146,3.7111,3.707,3.7165,3.71,3.7151,3.7152,3.7171,3.717,3.7344,3.7183,3.7183,3.7183,3.7182,0,3.7167,3.7215,3.7164,3.7193,3.7244,3.72,3.7251,3.7238,3.7231,3.7255,3.7205,3.7229,3.7183,3.7202,3.7176,3.7219,3.7223,3.7211,3.7202,3.7213,3.7214,3.7215,3.7205,3.7187,3.7186,3.7185,3.7185,0,3.7315,3.7284,3.7331,3.7309,3.7304,3.7342,3.7322,3.7347,3.7327,3.7358,3.7363,3.733,3.735,3.7317,3.7334,3.7315,3.7375,3.7357,3.7376,3.7369,3.7421,3.7415,3.7599,3.762,3.7449,3.7451,3.7452,0,3.7403,3.7437,3.7418,3.743,3.7425,3.7447,3.7455,3.7414,3.7424,3.742,3.7445,3.7461,3.7471,3.7506,3.7483,3.7495,3.7474,3.7538,3.7476,3.7484,3.7471,3.7467,3.7469,3.755,3.7552,3.7554,3.7555,0,3.756,3.7542,3.7556,3.7564,3.7575,3.758,3.758,3.7594,3.755,3.7564,3.7583,3.7591,3.7607,3.7622,3.7628,3.762,3.758,3.7575,3.7587,3.7596,3.7604,3.7597,3.7407,3.757,3.7569,3.7568,3.7567,3.7566,3.7677,3.7704,3.7693,3.7709,3.7706,3.7707,3.7729,3.771,3.7725,3.7733,3.7709,3.7733,3.7725,3.7729,3.7725,3.7743,3.7715,3.7733,3.7737,3.7741,3.7747,3.7605,3.7745,3.7745,3.7744,3.7744,3.7743,0,3.7828,3.7818,3.7834,3.7835,3.7848,3.7809,3.7808,3.782,3.7842,3.7838,3.7848,3.7869,3.7883,3.7862,3.7872,3.789,3.7872,3.7894,3.789,3.7889,3.7774,3.7761,3.7909,3.7909,3.7909,3.7909,3.7909,3.7909,3.7908,3.7949,3.793,3.7968,3.7958,3.798,3.7982,3.7983,3.7979,3.8004,3.8015,3.8001,3.7989,3.7998,3.8009,3.8002,3.8006,3.8035,3.8021,3.7913,3.7897,3.7882,3.7869,3.8037,3.8037,3.8133,3.8134,3.8135]},{"header":{"parameterUnit":"m.s-1","parameterCategory":1,"la1":30.2991,"la2":30.254,"lo1":-89.0895,"lo2":-89.0444,"dy":0.0017,"dx":0.0017,"nx":28,"ny":28,"refTime":"2025-05-28T09:00:00:Z","depth":0,"parameterNumber":3,"parameterNumberName":"V-component_of_WINDS"},"data":[0,0,0,0,0,0,0,0,0,0,0,0,0,0,0,0,0,0,0,0,0,0,0,0,0,0,0,0,0,0,0,0,0,0,0,0,0,0,0,0,0,0,0,0,0,0,0,0,0,0,0,0,0,0,0,0,0,0,2.7241,2.7243,0,2.7382,2.7383,2.7385,2.7418,2.7417,2.7416,2.7415,2.7558,2.7562,2.7567,0,0,0,0,0,0,0,0,0,0,0,0,0,2.6998,2.7002,2.7241,2.7243,2.7245,2.7382,2.7384,2.7385,2.7418,2.7417,2.7416,2.7415,2.7556,2.7562,2.7567,0,0,0,0,0,0,0,0,0,0,0,0,0,2.7117,2.7003,2.7241,2.7278,2.7282,2.7381,2.7384,2.7386,2.7418,2.7417,2.7415,2.7414,2.7554,2.7561,2.7568,2.764,0,0,2.7589,2.7592,0,0,0,0,0,0,0,0,2.711,2.7126,2.727,2.7275,2.7281,2.7381,2.735,2.7471,2.7419,2.7367,2.7415,2.7413,2.75,2.7511,2.7541,2.7647,2.7653,2.759,2.7594,2.7597,2.7599,0,0,0,0,0,0,0,2.7102,2.712,2.7297,2.7272,2.7279,2.7286,2.7301,2.7373,2.7439,2.7371,2.7374,2.739,2.7502,2.7534,2.7544,2.7655,2.759,2.7596,2.76,2.7603,2.7824,2.7826,0,0,0,0,0,0,2.7088,2.7113,2.7292,2.7301,2.719,2.7291,2.7309,2.735,2.7439,2.7451,2.7391,2.7391,2.7523,2.7536,2.7549,2.7638,2.7597,2.7604,2.7608,2.7822,2.7824,2.7826,0,0,0,0,0,0,2.7082,2.7104,2.7287,2.7208,2.7232,2.7297,2.7343,2.7354,2.7385,2.7454,2.7466,2.7411,2.7522,2.754,2.7617,2.7643,2.7607,2.7613,2.782,2.7823,2.7825,2.7816,0,0,0,0,0,0,2.7075,2.7101,2.713,2.7208,2.7236,2.7353,2.7345,2.7357,2.7397,2.7399,2.7476,2.7488,2.7522,2.7606,2.7624,2.7652,2.7619,2.7818,2.7822,2.7824,2.7815,2.7818,2.7821,0,0,0,0,0,2.7067,2.7123,2.7132,2.7153,2.7274,2.7354,2.737,2.7409,2.74,2.7428,2.7472,2.7485,2.7638,2.7614,2.7634,2.7665,2.7817,2.7821,2.7824,2.7813,2.7818,2.7821,0,0,0,0,0,0,2.7046,2.7134,2.7145,2.7228,2.7283,2.736,2.7398,2.7413,2.7472,2.7471,2.7516,2.7533,2.7607,2.7644,2.7616,2.7738,2.7727,2.7735,2.7711,2.7716,2.772,2.7709,2.7625,0,0,0,0,0,2.7051,2.711,2.7183,2.7249,2.7277,2.7332,2.7369,2.7394,2.7453,2.7476,2.7526,2.7582,2.7642,2.7681,2.7741,2.782,2.7836,2.7851,2.7854,2.7857,2.7863,2.7905,2.7912,2.7838,2.7838,2.7838,0,0,2.7063,2.7118,2.7152,2.7247,2.7293,2.7351,2.7352,2.7414,2.7458,2.7486,2.7561,2.7599,2.7665,2.7743,2.7779,2.7776,2.7887,2.7862,2.7863,2.7868,2.791,2.7917,2.7923,2.7841,2.784,2.784,0,0,2.7113,2.7161,2.7221,2.7266,2.7336,2.7372,2.7386,2.746,2.7486,2.7563,2.7584,2.7636,2.774,2.7785,2.7821,2.7886,2.7899,2.7904,2.7922,2.7962,2.7968,2.7974,2.7995,2.8003,2.791,2.791,2.791,0,2.7118,2.7209,2.7249,2.7311,2.735,2.7378,2.7437,2.748,2.7565,2.7591,2.7585,2.7715,2.7761,2.7849,2.7864,2.7893,2.7909,2.7896,2.7964,2.797,2.7976,2.7997,2.8005,2.791,2.791,2.791,2.791,0,2.7211,2.7272,2.7312,2.7393,2.7437,2.7497,2.7546,2.7585,2.7606,2.7642,2.7718,2.7775,2.7845,2.7868,2.7889,2.7958,2.7953,2.7955,2.7945,2.7982,2.8002,2.8011,2.791,2.791,2.791,2.791,0,0,2.7254,2.7355,2.7369,2.7405,2.7482,2.753,2.759,2.7659,2.7691,2.7748,2.7799,2.7885,2.7887,2.7928,2.7954,2.799,2.8035,2.7988,2.799,2.7994,2.8113,2.811,2.8119,2.8045,2.8046,2.8048,2.8107,0,2.7313,2.7422,2.7459,2.7549,2.7605,2.7631,2.7683,2.7735,2.777,2.7822,2.786,2.792,2.7919,2.7944,2.798,2.8022,2.806,2.8018,2.8091,2.8093,2.8073,2.813,2.8128,2.8181,2.8115,2.8117,2.8118,0,2.7397,2.7454,2.755,2.7618,2.7643,2.7689,2.7754,2.7804,2.7863,2.7885,2.793,2.7953,2.8015,2.8001,2.8086,2.8057,2.8089,2.8114,2.8117,2.8124,2.8107,2.8138,2.8199,2.8206,2.8131,2.813,2.8129,0,2.7416,2.7518,2.7588,2.7618,2.77,2.7731,2.7766,2.7824,2.7862,2.7918,2.7943,2.8006,2.804,2.8087,2.8126,2.8112,2.8207,2.8197,2.8227,2.8226,2.8246,2.8244,2.8311,2.8267,2.8267,2.8267,2.8267,0,2.7478,2.7535,2.7597,2.764,2.7704,2.7745,2.7807,2.7843,2.7894,2.7943,2.7969,2.8015,2.8063,2.8115,2.8145,2.821,2.8226,2.8245,2.8252,2.8242,2.824,2.8263,2.826,2.8269,2.8268,2.8268,2.8268,0,2.7511,2.7556,2.7633,2.7703,2.7722,2.7766,2.7825,2.7867,2.7902,2.7964,2.7981,2.8036,2.8097,2.814,2.822,2.824,2.831,2.8318,2.829,2.8294,2.8321,2.8317,2.8406,2.8418,2.8366,2.8366,2.8367,0,2.7548,2.7592,2.7666,2.7701,2.7736,2.7792,2.7831,2.7873,2.7912,2.7981,2.8014,2.8077,2.813,2.8227,2.8273,2.8334,2.8342,2.8369,2.8351,2.8339,2.8341,2.8338,2.8342,2.8371,2.8372,2.8372,2.8372,0,2.7606,2.7625,2.7681,2.7743,2.7788,2.7839,2.789,2.7917,2.7967,2.801,2.8073,2.8114,2.8194,2.8256,2.832,2.8356,2.8372,2.8377,2.8387,2.8377,2.8359,2.8368,2.8296,2.8375,2.8375,2.8374,2.8374,2.8374,2.7642,2.7681,2.7739,2.7799,2.7842,2.7888,2.793,2.797,2.8024,2.8092,2.8113,2.8178,2.8234,2.8322,2.8358,2.8409,2.8407,2.8422,2.8426,2.8428,2.8427,2.8351,2.8421,2.8421,2.8421,2.8421,2.8421,0,2.7701,2.7739,2.7793,2.7864,2.791,2.7921,2.7978,2.8016,2.8073,2.8124,2.8174,2.8246,2.8306,2.8356,2.8418,2.8448,2.8457,2.8463,2.8461,2.8468,2.8426,2.8411,2.8455,2.8455,2.8455,2.8455,2.8455,2.8455,2.7737,2.7804,2.7829,2.7917,2.7955,2.8019,2.805,2.8092,2.8133,2.8211,2.8261,2.8293,2.8344,2.8409,2.8463,2.8476,2.8497,2.8501,2.8516,2.8476,2.8472,2.8468,2.8454,2.8506,2.8506,2.8554,2.8554,2.8555]}]]